Latest Coastal Weather Observations for Cooktown

IDQ60701

Issued at 1:55 pm EST Thursday 23 October 2014 (issued every 10 minutes, with the page automatically refreshed every 10 minutes)

About coastal observations | Map of coastal stations | Coastal observations for QLD | Marine services | Other Formats
Station Details ID: 031209 Name: COOKTOWN AIRPORT Lat: -15.45 Lon: 145.19 Height: 4.8 m
Data from the previous 72 hours. | See also: Recent months at Cooktown
Date/Time
EST
Temp

°C
Wind Pressure Rain
since 9am
mm
Weather Cloud Vis
km
Sea
Height
m
Swell
Dir
 
Speed
knots
Gust
knots
hPa Trend Height
m
Period
s
Dir
23/01:30pm 28.0 SE 16 23 1014.7 - 0.2 - Partly cloudy 10 - - - -
23/01:05pm 28.3 ESE 16 28 1015.2 - 0.2 - Partly cloudy 10 - - - -
23/01:00pm 27.9 ESE 17 24 1015.3 - 0.2 - Partly cloudy 10 - - - -
23/12:30pm 28.3 SE 15 26 1015.6 - 0.2 - Partly cloudy 10 - - - -
23/12:13pm 27.4 SE 16 26 1016.0 - 0.2 - Partly cloudy 10 - - - -
23/12:00pm 28.2 ESE 17 26 1016.1 - 0.2 - Partly cloudy 10 - - - -
23/11:38am 27.5 ESE 17 27 1016.4 - 0.2 - Partly cloudy - - - - -
23/11:30am 27.9 ESE 17 23 1016.5 - 0.0 - Partly cloudy - - - - -
23/11:00am 29.3 ESE 18 24 1016.6 - 0.0 - Partly cloudy 10 - - - -
23/10:30am 27.0 ESE 16 27 1016.9 - 0.0 - Partly cloudy 10 - - - -
23/10:24am 27.8 ESE 16 27 1017.0 - 0.0 - Partly cloudy 10 - - - -
23/10:00am 27.2 SE 16 23 1017.0 - 0.0 - Partly cloudy 10 - - - -
23/09:30am 26.7 SE 12 22 1017.2 - 0.0 - Partly cloudy 10 - - - -
23/09:00am 26.3 ESE 14 22 1017.1 F 0.0 Fine Mostly clear 40 - - - -
23/08:30am 27.2 ESE 15 24 1017.2 - 0.0 - Partly cloudy 10 - - - -
23/08:20am 26.3 ESE 15 26 1017.1 - 0.0 - Partly cloudy 10 - - - -
23/08:00am 25.6 ESE 17 23 1017.1 - 0.0 - Partly cloudy 10 - - - -
23/07:30am 25.4 ESE 15 22 1017.0 - 0.0 - Partly cloudy 10 - - - -
23/07:00am 24.9 ESE 16 23 1016.6 - 0.0 - Partly cloudy 10 - - - -
23/06:30am 24.6 ESE 13 20 1016.3 - 0.0 - Partly cloudy 10 - - - -
23/06:00am 23.7 ESE 14 21 1016.0 - 0.0 - Mostly cloudy 10 - - - -
23/05:30am 23.6 ESE 14 18 1015.8 - 0.0 - Partly cloudy 10 - - - -
23/05:00am 23.7 ESE 14 23 1015.7 - 0.0 - Partly cloudy 10 - - - -
23/04:30am 23.7 ESE 15 25 1015.3 - 0.0 - Partly cloudy 10 - - - -
23/04:23am 23.8 ESE 15 25 1015.2 - 0.0 - Partly cloudy 10 - - - -
23/04:00am 23.5 ESE 12 22 1015.1 - 0.0 - Partly cloudy 10 - - - -
23/03:30am 23.3 ESE 10 15 1015.1 - 0.0 - Partly cloudy 10 - - - -
23/03:00am 23.7 ESE 11 18 1015.1 - 0.0 - Cloudy 10 - - - -
23/02:30am 23.4 ESE 12 19 1015.4 - 0.0 - Partly cloudy 10 - - - -
23/02:00am 23.6 ESE 13 21 1015.7 - 0.0 - - 10 - - - -
23/01:30am 23.6 ESE 14 21 1016.2 - 0.0 - Partly cloudy 10 - - - -
23/01:00am 23.6 ESE 13 20 1016.7 - 0.0 - - 10 - - - -
23/12:30am 23.9 ESE 14 22 1017.2 - 0.0 - - 10 - - - -
23/12:00am 23.9 ESE 15 23 1017.5 - 0.0 - Mostly clear 10 - - - -
 
Date/Time
EST
Temp

°C
Wind Pressure Rain
since 9am
mm
Weather Cloud Vis
km
Sea
Height
m
Swell
Dir
 
Speed
knots
Gust
knots
hPa Trend Height
m
Period
s
Dir
22/11:30pm 24.3 ESE 16 25 1017.8 - 0.0 - Partly cloudy 10 - - - -
22/11:28pm 24.2 ESE 15 25 1017.9 - 0.0 - Partly cloudy 10 - - - -
22/11:00pm 24.1 ESE 14 24 1018.2 - 0.0 - Partly cloudy 10 - - - -
22/10:30pm 24.3 SE 15 23 1018.1 - 0.0 - - 10 - - - -
22/10:13pm 24.2 SE 15 25 1018.3 - 0.0 - - 10 - - - -
22/10:00pm 24.1 SE 13 20 1018.4 - 0.0 - - 10 - - - -
22/09:30pm 24.3 SE 15 22 1018.1 - 0.0 - Partly cloudy 10 - - - -
22/09:12pm 24.5 ESE 15 27 1017.8 - 0.0 - Partly cloudy 10 - - - -
22/09:00pm 24.5 ESE 15 24 1017.6 - 0.0 - Partly cloudy 10 - - - -
22/08:30pm 24.7 ESE 15 23 1017.4 - 0.0 - Partly cloudy 10 - - - -
22/08:00pm 24.4 ESE 14 22 1017.0 - 0.0 - Partly cloudy 10 - - - -
22/07:30pm 24.5 ESE 17 25 1016.8 - 0.0 - Partly cloudy 10 - - - -
22/07:24pm 24.5 ESE 15 25 1016.7 - 0.0 - Partly cloudy 10 - - - -
22/07:00pm 24.5 SE 13 23 1016.4 - 0.0 - Partly cloudy 10 - - - -
22/06:30pm 24.5 SE 14 21 1016.2 - 0.0 - Partly cloudy 10 - - - -
22/06:00pm 24.9 SE 15 25 1015.9 - 0.0 - Mostly clear 10 - - - -
22/05:30pm 25.3 SE 15 26 1015.7 - 0.0 - - 10 - - - -
22/05:00pm 26.1 SE 16 27 1015.4 - 0.0 - - 10 - - - -
22/04:30pm 26.6 ESE 15 25 1015.1 - 0.0 - Partly cloudy 10 - - - -
22/04:29pm 26.8 ESE 15 25 1015.1 - 0.0 - Partly cloudy 10 - - - -
22/04:00pm 26.7 ESE 17 25 1015.0 - 0.0 - Partly cloudy 10 - - - -
22/03:40pm 26.7 ESE 18 29 1014.8 - 0.0 - Partly cloudy 10 - - - -
22/03:30pm 26.9 ESE 18 27 1014.9 - 0.0 - Partly cloudy 10 - - - -
22/03:06pm 27.2 ESE 19 30 1014.8 - 0.0 - - 10 - - - -
22/03:00pm 27.4 ESE 18 26 1014.9 - 0.0 - - 10 - - - -
22/02:30pm 27.5 ESE 18 29 1015.2 - 0.0 - Partly cloudy 10 - - - -
22/02:00pm 27.1 ESE 18 29 1015.5 - 0.0 - - 10 - - - -
22/01:49pm 27.7 ESE 19 29 1015.5 - 0.0 - - 10 - - - -
22/01:40pm 28.0 E 23 29 1015.5 - 0.0 - - 10 - - - -
22/01:30pm 27.9 SE 17 26 1015.7 - 0.0 - - 10 - - - -
22/01:00pm 27.9 ESE 18 29 1016.2 - 0.0 - - 10 - - - -
22/12:31pm 27.7 ESE 20 30 1016.6 - 0.0 - Partly cloudy 10 - - - -
22/12:30pm 28.1 ESE 21 30 1016.7 - 0.0 - Partly cloudy 10 - - - -
22/12:00pm 27.8 ESE 18 28 1016.9 - 0.0 - - 10 - - - -
22/11:54am 28.2 ESE 17 27 1017.0 - 0.0 - - 10 - - - -
22/11:30am 27.9 ESE 18 27 1017.2 - 0.0 - - 10 - - - -
22/11:00am 27.3 ESE 17 27 1017.7 - 0.0 - - 10 - - - -
22/10:36am 27.9 ESE 17 27 1017.9 - 0.0 - Partly cloudy 10 - - - -
22/10:30am 26.8 ESE 19 27 1018.0 - 0.0 - Partly cloudy 10 - - - -
22/10:09am 28.1 ESE 17 27 1018.1 - 0.0 - Partly cloudy 10 - - - -
22/10:00am 27.4 ESE 17 24 1018.1 - 0.0 - Partly cloudy 10 - - - -
22/09:30am 25.8 ESE 15 23 1018.1 - 0.0 - Partly cloudy 10 - - - -
22/09:00am 25.8 ESE 15 22 1018.1 R 0.0 Fine Partly cloudy 40 - - - -
22/08:30am 25.7 ESE 13 23 1018.0 - 0.0 - Partly cloudy 10 - - - -
22/08:00am 25.0 ESE 15 24 1017.7 - 0.0 - Partly cloudy 10 - - - -
22/07:30am 23.8 ESE 13 23 1017.3 - 0.0 - Partly cloudy 10 - - - -
22/07:00am 25.2 ESE 12 19 1016.7 - 0.0 - Partly cloudy 10 - - - -
22/06:30am 24.2 SE 14 23 1016.4 - 0.0 - Partly cloudy 10 - - - -
22/06:00am 23.8 ESE 14 15 1016.1 - 0.0 - Cloudy 10 - - - -
22/05:30am 23.9 ESE 12 17 1016.0 - 0.0 - Partly cloudy 10 - - - -
22/05:00am 23.6 ESE 11 15 1015.8 - 0.0 - Partly cloudy 10 - - - -
22/04:30am 23.8 ESE 13 20 1015.6 - 0.0 - Partly cloudy 10 - - - -
22/04:00am 23.9 ESE 12 21 1015.5 - 0.0 - Partly cloudy 10 - - - -
22/03:30am 24.0 ESE 11 19 1015.4 - 0.0 - Partly cloudy 10 - - - -
22/03:00am 23.8 ESE 12 19 1015.4 - 0.0 - Mostly clear 10 - - - -
22/02:30am 24.1 ESE 14 21 1015.9 - 0.0 - Partly cloudy 10 - - - -
22/02:00am 24.0 ESE 13 22 1016.1 - 0.0 - Partly cloudy 10 - - - -
22/01:30am 24.0 ESE 11 16 1016.5 - 0.0 - Partly cloudy 10 - - - -
22/01:00am 24.1 ESE 13 18 1017.1 - 0.0 - Partly cloudy 10 - - - -
22/12:30am 24.0 ESE 13 22 1017.5 - 0.0 - Partly cloudy 10 - - - -
22/12:00am 23.0 E 12 21 1017.9 - 0.0 - Cloudy 10 - - - -
 
Date/Time
EST
Temp

°C
Wind Pressure Rain
since 9am
mm
Weather Cloud Vis
km
Sea
Height
m
Swell
Dir
 
Speed
knots
Gust
knots
hPa Trend Height
m
Period
s
Dir
21/11:30pm 23.9 SE 13 22 1018.6 - 0.0 - Partly cloudy 10 - - - -
21/11:00pm 24.5 ESE 15 23 1018.7 - 0.0 - Partly cloudy 10 - - - -
21/10:30pm 24.6 ESE 15 23 1018.7 - 0.0 - Partly cloudy 10 - - - -
21/10:00pm 24.3 ESE 15 20 1018.8 - 0.0 - Partly cloudy 10 - - - -
21/09:56pm 24.4 ESE 15 26 1018.8 - 0.0 - Partly cloudy 10 - - - -
21/09:30pm 24.3 ESE 13 19 1018.6 - 0.0 - Partly cloudy 10 - - - -
21/09:07pm 24.3 ESE 15 25 1018.3 - 0.0 - Partly cloudy 10 - - - -
21/09:00pm 24.2 ESE 14 22 1018.1 - 0.0 - Mostly cloudy 10 - - - -
21/08:30pm 24.2 ESE 14 23 1018.0 - 0.0 - Partly cloudy 10 - - - -
21/08:00pm 24.3 ESE 11 22 1018.0 - 0.0 - Partly cloudy 10 - - - -
21/07:30pm 24.5 ESE 13 21 1017.7 - 0.0 - Partly cloudy 10 - - - -
21/07:00pm 24.5 ESE 12 18 1017.2 - 0.0 - Partly cloudy 10 - - - -
21/06:30pm 24.6 ESE 13 18 1017.0 - 0.0 - - 10 - - - -
21/06:00pm 25.0 ESE 11 21 1016.5 - 0.0 - Mostly clear 10 - - - -
21/05:30pm 25.4 SE 15 23 1016.3 - 0.0 - Partly cloudy 10 - - - -
21/05:16pm 25.8 ESE 16 26 1016.1 - 0.0 - Partly cloudy 10 - - - -
21/05:00pm 25.8 ESE 15 23 1016.0 - 0.0 - Partly cloudy 10 - - - -
21/04:30pm 26.4 SE 15 22 1015.7 - 0.0 - Partly cloudy 10 - - - -
21/04:06pm 26.8 ESE 17 27 1015.6 - 0.0 - Partly cloudy 10 - - - -
21/04:00pm 26.9 ESE 19 27 1015.6 - 0.0 - Partly cloudy 10 - - - -
21/03:32pm 26.8 ESE 17 27 1015.7 - 0.0 - Partly cloudy 10 - - - -
21/03:30pm 27.1 ESE 18 27 1015.7 - 0.0 - Partly cloudy 10 - - - -
21/03:00pm 27.1 ESE 18 30 1015.7 R 0.0 Fine Mostly clear 40 - - - -
21/02:51pm 28.2 ESE 16 26 1015.8 - 0.0 - Partly cloudy 10 - - - -
21/02:30pm 28.6 ESE 17 24 1015.9 - 0.0 - Partly cloudy 10 - - - -
21/02:00pm 27.9 ESE 17 28 1016.0 - 0.0 - - 10 - - - -
21/01:30pm 28.3 SE 15 25 1016.3 - 0.0 - Partly cloudy 10 - - - -
21/01:15pm 28.2 SE 15 25 1016.4 - 0.0 - Partly cloudy 10 - - - -
21/01:00pm 28.5 ESE 16 24 1016.6 - 0.0 - Partly cloudy 10 - - - -
21/12:30pm 28.1 ESE 16 27 1016.9 - 0.0 - Partly cloudy 10 - - - -
21/12:29pm 28.0 ESE 16 27 1016.9 - 0.0 - Partly cloudy 10 - - - -
21/12:00pm 29.3 SE 14 24 1017.4 - 0.0 - Mostly clear 10 - - - -
21/11:33am 28.2 ESE 15 26 1017.7 - 0.0 - Partly cloudy 10 - - - -
21/11:30am 27.5 SE 14 21 1017.8 - 0.0 - Partly cloudy 10 - - - -
21/11:00am 27.4 ESE 17 25 1018.0 - 0.0 - Partly cloudy 10 - - - -
21/10:30am 27.8 SE 14 20 1018.2 - 0.0 - Partly cloudy 10 - - - -
21/10:00am 26.9 ESE 14 23 1018.3 - 0.0 - Partly cloudy 10 - - - -
21/09:30am 26.0 ESE 16 23 1018.3 - 0.0 - Partly cloudy 10 - - - -
21/09:00am 25.5 SE 15 26 1018.1 R 0.0 Fine Mostly clear 35 - - - -
21/08:52am 26.2 ESE 16 26 1018.1 - 0.0 - Partly cloudy 10 - - - -
21/08:30am 25.9 SE 14 21 1017.9 - 0.0 - Partly cloudy 10 - - - -
21/08:00am 25.3 ESE 15 23 1017.7 - 0.0 - Partly cloudy 10 - - - -
21/07:30am 25.3 ESE 13 21 1017.4 - 0.0 - Partly cloudy 10 - - - -
21/07:00am 25.0 ESE 13 18 1016.9 - 0.0 - Partly cloudy 10 - - - -
21/06:30am 24.2 ESE 12 18 1016.6 - 0.0 - - 10 - - - -
21/06:00am 23.9 ESE 13 18 1016.2 - 0.0 - Partly cloudy 10 - - - -
21/05:30am 24.0 ESE 13 18 1016.3 - 0.0 - Partly cloudy 10 - - - -
21/05:00am 23.8 ESE 12 18 1015.8 - 0.0 - Partly cloudy 10 - - - -
21/04:30am 23.8 ESE 12 18 1015.7 - 0.0 - Partly cloudy 10 - - - -
21/04:00am 23.7 ESE 12 21 1015.6 - 0.0 - Partly cloudy 10 - - - -
21/03:30am 23.4 ESE 11 16 1015.8 - 0.0 - Partly cloudy 10 - - - -
21/03:00am 23.5 ESE 11 17 1015.7 - 0.0 - Mostly cloudy 10 - - - -
21/02:30am 23.9 ESE 13 21 1015.9 - 0.0 - Partly cloudy 10 - - - -
21/02:00am 23.9 ESE 13 20 1016.2 - 0.0 - Partly cloudy 10 - - - -
21/01:30am 24.0 ESE 12 17 1016.3 - 0.0 - Partly cloudy 10 - - - -
21/01:00am 23.9 ESE 13 21 1016.7 - 0.0 - Partly cloudy 10 - - - -
21/12:30am 24.1 ESE 12 17 1017.1 - 0.0 - Partly cloudy 10 - - - -
21/12:00am 24.1 ESE 11 21 1017.3 - 0.0 - Cloudy 10 - - - -
 
Date/Time
EST
Temp

°C
Wind Pressure Rain
since 9am
mm
Weather Cloud Vis
km
Sea
Height
m
Swell
Dir
 
Speed
knots
Gust
knots
hPa Trend Height
m
Period
s
Dir
20/11:30pm 24.1 ESE 13 19 1017.6 - 0.0 - Partly cloudy 10 - - - -
20/11:00pm 24.2 ESE 12 17 1017.7 - 0.0 - Partly cloudy 10 - - - -
20/10:30pm 24.3 ESE 13 22 1017.7 - 0.0 - Partly cloudy 10 - - - -
20/10:08pm 24.4 ESE 15 25 1017.8 - 0.0 - Partly cloudy 10 - - - -
20/10:00pm 24.4 ESE 14 20 1017.9 - 0.0 - Partly cloudy 10 - - - -
20/09:30pm 24.3 ESE 13 21 1017.8 - 0.0 - Partly cloudy 10 - - - -
20/09:00pm 24.5 ESE 12 21 1017.4 - 0.0 - Cloudy 10 - - - -
20/08:30pm 24.4 SE 13 19 1017.4 - 0.0 - Partly cloudy 10 - - - -
20/08:00pm 24.3 ESE 14 19 1017.0 - 0.0 - Partly cloudy 10 - - - -
20/07:30pm 24.4 SE 12 22 1016.7 - 0.0 - Partly cloudy 10 - - - -
20/07:00pm 24.5 SE 13 23 1016.4 - 0.0 - Partly cloudy 10 - - - -
20/06:30pm 24.4 SE 11 18 1016.2 - 0.0 - Partly cloudy 10 - - - -
20/06:02pm 24.7 SE 15 25 1016.1 - 0.0 - Partly cloudy 10 - - - -
20/06:00pm 24.7 SE 15 22 1015.9 - 0.0 - Cloudy 10 - - - -
20/05:39pm 24.8 SE 15 26 1015.8 - 0.0 - Partly cloudy 10 - - - -
20/05:30pm 25.7 SE 12 19 1015.7 - 0.0 - Partly cloudy 10 - - - -
20/05:12pm 25.4 ESE 15 25 1015.5 - 0.0 - Partly cloudy 10 - - - -
20/05:00pm 25.5 SE 13 23 1015.3 - 0.0 - Partly cloudy 10 - - - -
20/04:30pm 26.3 SE 16 24 1015.1 - 0.0 - Partly cloudy 10 - - - -
20/04:00pm 26.3 ESE 15 25 1015.0 - 0.0 - Partly cloudy 10 - - - -
20/03:36pm 25.9 ESE 15 25 1015.1 - 0.0 - Partly cloudy 10 - - - -
20/03:30pm 26.0 ESE 17 23 1015.1 - 0.0 - Partly cloudy 10 - - - -
20/03:05pm 26.4 ESE 17 27 1015.2 - 0.0 - Partly cloudy 10 - - - -
20/03:00pm 27.0 ESE 19 27 1015.1 R 0.0 Fine Partly cloudy 35 - - - -
20/02:45pm 26.5 ESE 18 29 1015.3 - 0.0 - Partly cloudy 10 - - - -
20/02:30pm 27.4 ESE 19 25 1015.4 - 0.0 - Partly cloudy 10 - - - -
20/02:07pm 28.1 ESE 18 28 1015.6 - 0.0 - Partly cloudy 10 - - - -
20/02:00pm 27.5 ESE 20 28 1015.5 - 0.0 - Partly cloudy 10 - - - -

Other Formats:

Comma delimited format used in spreadsheet applications
http://www.bom.gov.au/fwo/IDQ60701/IDQ60701.95283.axf

JavaScript Object Notation format (JSON) in row-major order
http://www.bom.gov.au/fwo/IDQ60701/IDQ60701.95283.json